This is the latest recevied weather packets stored in our database for station/object KQ4NAL. If no packets are shown the sender has not sent any weather packets the latest 10 day(s).
| Time | Temp. | Humidity | Pressure | Rain* | Wind** | Luminosity | Snow |
|---|---|---|---|---|---|---|---|
| 1777463475 | 15° C | 98% | 1011.5 hPa | 0 mm | - | 13 W/m² | - |
| 1777463171 | 15° C | 98% | 1011.4 hPa | 0 mm | - | 22 W/m² | - |
| 1777462867 | 15° C | 98% | 1011.9 hPa | 0 mm | - | 15 W/m² | - |
| 1777462563 | 15° C | 98% | 1011.8 hPa | 0 mm | - | 14 W/m² | - |
| 1777462259 | 15° C | 98% | 1011.7 hPa | 0 mm | - | 10 W/m² | - |
| 1777461955 | 15° C | 98% | 1011.6 hPa | 0 mm | - | 11 W/m² | - |
| 1777461652 | 15° C | 99% | 1011.6 hPa | 0 mm | - | 15 W/m² | - |
| 1777461347 | 15° C | 99% | 1011.6 hPa | 0 mm | - | 8 W/m² | - |
| 1777461044 | 15° C | 99% | 1011.6 hPa | 0 mm | - | 3 W/m² | - |
| 1777460739 | 15° C | 99% | 1011.4 hPa | 0 mm | - | 2 W/m² | - |
| 1777460436 | 15° C | 99% | 1011.6 hPa | 0 mm | - | 2 W/m² | - |
| 1777460131 | 14.44° C | 99% | 1011.5 hPa | 0 mm | - | 2 W/m² | - |
| 1777459828 | 14.44° C | 99% | 1011.8 hPa | 0 mm | - | 2 W/m² | - |
| 1777459525 | 14.44° C | 99% | 1011.5 hPa | 0 mm | - | 0 W/m² | - |
| 1777459223 | 14.44° C | 99% | 1011.6 hPa | 0 mm | - | 0 W/m² | - |
| 1777458921 | 14.44° C | 99% | 1011.9 hPa | 0 mm | - | 0 W/m² | - |
| 1777458617 | 14.44° C | 99% | 1011.9 hPa | 0 mm | - | 0 W/m² | - |
| 1777458314 | 14.44° C | 99% | 1011.7 hPa | 0 mm | - | 0 W/m² | - |
| 1777458009 | 14.44° C | 98% | 1011.7 hPa | 0 mm | - | 0 W/m² | - |
| 1777457706 | 14.44° C | 98% | 1011.6 hPa | 0 mm | - | 0 W/m² | - |
| 1777457405 | 14.44° C | 98% | 1011.6 hPa | 0 mm | - | 0 W/m² | - |
| 1777457101 | 14.44° C | 98% | 1011.6 hPa | 0 mm | - | 0 W/m² | - |
| 1777456797 | 14.44° C | 98% | 1011.2 hPa | 0 mm | - | 0 W/m² | - |
| 1777456497 | 14.44° C | 98% | 1011.1 hPa | 0 mm | - | 0 W/m² | - |
| 1777456193 | 14.44° C | 98% | 1011.1 hPa | 0 mm | - | 0 W/m² | - |
* Rain latest hour (hover to see other rain measurements)
** Current wind speed in m/s (hover to see current wind gust speed)